星链-11167 [DTC] (STARLINK-11167 [DTC] )

导读 | 星芒AI

STARLINK-11167 [DTC] 是 SpaceX 星链(Starlink)卫星互联网项目中的一颗低轨通信卫星。该卫星属于星链计划的第二代(Gen2)卫星群,旨在提供更高速、低延迟的全球互联网服务。DTC(Direct to Cell)功能使其能够直接连接蜂窝设备,无需用户额外安装终端。该卫星部署在近地轨道,支持全球范围内的宽带接入,尤其在偏远地区具有重要意义。其发射和运行是 SpaceX 扩展全球卫星通信网络、实现无缝互联网覆盖的关键一步。

基本信息
目录编号:
60061
目录名称:
STARLINK-11167
国际标识:
2024-113C
轨道中心:
EARTH
卫星名称:
星链-11167 [DTC]
卫星全名:
星链-11167 [DTC] (STARLINK-11167 [DTC] )
卫星状态:
在轨 (已飞行544 天)
发射日期:
2024-06-19 UTC
国别 :
美国 (US)
星等 :
--
轨道信息
数据来源 国际轨道数据
星历时间: 2025-12-15T07:06:34+0800
19小时前
查看轨道信息
半长轴: 6737.836km
偏心率: 0.0001038
轨道倾角: 53.159°
近地点辐角 99.255°
升交点赤经 248.903°
平近点角 260.859°
近地点: 359.001km
远地点: 360.401km
周期: 91.736分钟
每日圈数: 15.697198
详细信息
固有亮度:
5
最大亮度:
0.3
卫星平台:
Starlink v2.0 mini
覆盖范围:
全球
运营商:
太空探索技术公司
运营商所在国:
美国
制造商(研发单位):
太空探索技术公司
制造商所在国:
美国
使用方式:
暂无
卫星简介
星链(Starlink)计划是由太空探索技术公司(SpaceX)提出的一个巨型低轨卫星互联网星座项目,计划在2019年至2024年间在太空搭建由约1.2万颗卫星组成的“星链”网络,其中1584颗将部署在地球上空550千米处的近地轨道,并从2020年开始工作。该卫星仍在工作。
2D轨道图
3D轨道图
轨道高度分析图
轨道倾角分析图
轨道综合分析图
查看轨道综合分析图